Location: Tom
(33.0437°N, 96.9452°W)
Time: 00:46:47
(UTC-06:00)

N. Korean satellite - Pass Details

Date: 29 January 2019
Orbit: 457 x 510 km, 97.2° (Epoch: 17 February)

Event Time Altitude Azimuth Distance (km) Brightness Sun altitude
Rises 18:16:13 0° 179° (S) 2,582 10.5 -4.6°
Reaches altitude 10° 18:18:20 10° 185° (S) 1,708 9.7 -5.0°
Maximum altitude 18:21:54 48° 261° (W) 668 7.9 -5.8°
Drops below altitude 10° 18:25:32 10° 337° (NNW) 1,732 9.5 -6.5°
Sets 18:27:41 0° 343° (NNW) 2,622 10.3 -6.9°
